Terminal Aerodrome Forecast
Issued by NWS Shreveport, LA

Home | Current Version | Previous Version | Text Only | Print | Product List | Glossary On
Versions: 1 2 3 4 5 6 7 8 9 10 11 12
000
FTUS44 KSHV 190500
TAFTXK
TAF
KTXK 190537Z 1906/2006 07005KT 4SM BR OVC004
     FM191400 05004KT 4SM -RA BR OVC005
     FM191600 05005KT 3SM -RA BR OVC005
     FM192200 05005KT 5SM BR OVC008
     FM200000 05004KT 5SM BR OVC010=

USA.gov is the U.S. government's official web portal to all federal, state and local government web resources and services.